W5CRT Weather Reports


time (UTC)temp
F
wind
direction
speed
knots
gust
knots
rain 1hr
in
rain 24hr
in
rain mn
in
humidity
%
barometer
mb
20260506113633 54 353 3.5 7.8 0.00 0.00 0.00 80 1010.2
20260506113130 55 8 8.7 10.4 0.00 0.00 0.00 78 1010.3
20260506112626 55 356 7.8 8.7 0.00 0.00 0.00 77 1010.0
20260506112124 55 17 4.3 8.7 0.00 0.00 0.00 78 1010.1
20260506111622 55 5 7.0 9.6 0.00 0.00 0.00 78 1009.9
20260506111119 55 9 7.8 13.0 0.00 0.00 0.00 77 1009.8
20260506110616 55 16 7.8 9.6 0.00 0.00 0.00 76 1009.8
20260506110114 55 350 5.2 13.0 0.00 0.00 0.00 76 1009.6
20260506105610 55 331 8.7 13.0 0.00 0.00 0.00 76 1009.6
20260506105107 55 4 4.3 8.7 0.00 0.00 0.00 76 1009.5
20260506104605 55 6 3.5 9.6 0.00 0.00 0.00 76 1009.4
20260506104102 55 3 6.1 7.8 0.00 0.00 0.00 75 1009.3
20260506103559 56 13 6.1 9.6 0.00 0.00 0.00 75 1009.2
20260506103056 56 15 5.2 8.7 0.00 0.00 0.00 75 1009.0
20260506102555 56 6 7.8 9.6 0.00 0.00 0.00 75 1009.2
20260506102052 56 305 4.3 7.8 0.00 0.00 0.00 74 1008.7
20260506101548 56 0 7.0 11.3 0.00 0.00 0.00 74 1008.8
20260506101045 56 4 3.5 9.6 0.00 0.00 0.00 75 1008.7
20260506100544 56 329 5.2 7.0 0.00 0.00 0.00 75 1008.8
20260506100041 56 357 3.5 6.1 0.00 0.00 0.00 74 1008.7
20260506095540 56 343 7.0 8.7 0.00 0.00 0.00 74 1008.9
20260506095036 56 16 4.3 7.8 0.00 0.00 0.00 75 1008.7
20260506094534 56 3 3.5 9.6 0.00 0.00 0.00 74 1008.7
20260506094032 57 351 7.0 7.8 0.00 0.00 0.00 74 1008.6
20260506093530 57 9 3.5 7.0 0.00 0.00 0.00 74 1008.7
20260506093027 57 35 3.5 7.0 0.00 0.00 0.00 74 1008.6
20260506092525 57 295 7.0 7.8 0.00 0.00 0.00 74 1008.3
20260506092021 57 341 3.5 5.2 0.00 0.00 0.00 74 1008.3
20260506091520 57 353 5.2 7.8 0.00 0.00 0.00 74 1008.1
20260506091016 57 8 4.3 7.0 0.00 0.00 0.00 74 1008.3
20260506090514 57 8 2.6 6.1 0.00 0.00 0.00 74 1008.1
20260506090010 57 10 4.3 6.1 0.00 0.00 0.00 73 1007.8
20260506085507 57 14 4.3 7.0 0.00 0.00 0.00 73 1007.9
20260506085003 57 14 5.2 9.6 0.00 0.00 0.00 73 1007.9
20260506084500 57 9 4.3 5.2 0.00 0.00 0.00 73 1008.0
20260506083956 57 1 6.1 8.7 0.00 0.00 0.00 73 1008.1
20260506083454 57 71 4.3 6.1 0.00 0.00 0.00 74 1007.9
20260506082951 57 54 2.6 6.1 0.00 0.00 0.00 74 1007.7
20260506082448 57 20 4.3 5.2 0.00 0.00 0.00 75 1007.4
20260506081943 57 66 1.7 5.2 0.00 0.00 0.00 75 1007.6
20260506081442 57 335 4.3 5.2 0.00 0.00 0.00 74 1007.6
20260506080939 57 13 4.3 5.2 0.00 0.00 0.00 74 1007.7
20260506080436 57 29 3.5 4.3 0.00 0.00 0.00 74 1007.4
20260506073420 58 16 5.2 9.6 0.00 0.00 0.00 74 1007.7
20260506072917 58 18 3.5 6.1 0.00 0.00 0.00 74 1007.8
20260506072414 58 26 5.2 7.8 0.00 0.00 0.00 75 1008.0
20260506071912 58 36 3.5 5.2 0.00 0.00 0.00 75 1007.7
20260506071410 58 12 2.6 5.2 0.00 0.00 0.00 75 1007.6
20260506070906 58 0 2.6 7.8 0.00 0.00 0.00 75 1008.0
20260506070403 58 9 5.2 7.0 0.00 0.00 0.00 74 1007.9
20260506062341 59 347 4.3 7.8 0.00 0.00 0.00 75 1007.7
20260506061836 59 350 4.3 8.7 0.00 0.00 0.00 75 1007.8
20260506061333 59 17 7.8 10.4 0.00 0.00 0.00 75 1007.6
20260506060832 60 334 4.3 7.8 0.00 0.00 0.00 75 1007.8
20260506060329 60 351 8.7 8.7 0.00 0.00 0.00 76 1007.6
20260506051301 61 26 7.8 10.4 0.00 0.00 0.00 76 1007.5
20260506050759 61 11 6.1 10.4 0.00 0.00 0.00 77 1007.3
20260506050256 62 342 4.3 7.8 0.00 0.00 0.00 77 1007.3
20260506044747 63 8 9.6 9.6 0.00 0.00 0.00 77 1007.5
20260506044244 63 23 3.5 6.1 0.00 0.00 0.00 78 1007.3
20260506043741 63 359 4.3 7.0 0.00 0.00 0.00 77 1007.2
20260506043238 63 20 7.0 9.6 0.00 0.00 0.00 77 1007.3
20260506042737 64 32 5.2 7.8 0.00 0.00 0.00 77 1007.2
20260506042235 64 9 7.8 9.6 0.00 0.00 0.00 77 1006.8
20260506041733 64 69 3.5 5.2 0.00 0.00 0.00 77 1006.6
20260506041230 65 352 4.3 7.0 0.00 0.00 0.00 77 1006.8
20260506040728 65 343 3.5 9.6 0.00 0.00 0.00 76 1007.0
20260506040225 65 6 6.1 9.6 0.00 0.00 0.00 76 1006.9
20260506035721 66 350 8.7 10.4 0.00 0.00 0.00 75 1006.9
20260506035218 66 333 7.8 8.7 0.00 0.00 0.00 75 1006.8
20260506034715 66 1 7.8 10.4 0.00 0.00 0.00 75 1006.6
20260506034212 67 344 3.5 9.6 0.00 0.00 0.00 75 1006.5
20260506033710 67 0 6.1 9.6 0.00 0.00 0.00 75 1006.8
20260506033206 68 351 5.2 9.6 0.00 0.00 0.00 75 1006.5
20260506032703 68 346 6.1 10.4 0.00 0.00 0.00 75 1006.5
20260506032200 68 345 2.6 9.6 0.00 0.00 0.00 75 1006.1
20260506031657 69 7 5.2 7.8 0.00 0.00 0.00 75 1006.1
20260506031154 69 354 7.8 10.4 0.00 0.00 0.00 74 1006.0
20260506030653 69 355 5.2 9.6 0.00 0.00 0.00 74 1006.1
20260506030149 70 12 6.1 8.7 0.00 0.00 0.00 74 1006.1
20260506025646 70 3 4.3 6.1 0.00 0.00 0.00 74 1005.8
20260506025142 70 343 7.8 10.4 0.00 0.00 0.00 73 1005.9
20260506024640 70 339 5.2 9.6 0.00 0.00 0.00 73 1005.4
20260506024136 71 4 7.0 7.8 0.00 0.00 0.00 73 1005.5
20260506023632 71 3 5.2 7.8 0.00 0.00 0.00 73 1005.1
20260506023130 71 1 4.3 8.7 0.00 0.00 0.00 73 1005.1
20260506022627 71 357 7.8 10.4 0.00 0.00 0.00 72 1005.0
20260506022124 72 6 6.1 8.7 0.00 0.00 0.00 72 1005.0
20260506021622 72 8 6.1 7.8 0.00 0.00 0.00 72 1004.4
20260506021119 73 14 3.5 7.8 0.00 0.00 0.00 72 1004.2
20260506020616 74 354 6.1 8.7 0.00 0.00 0.00 72 1004.7
20260506020114 74 333 1.7 7.0 0.00 0.00 0.00 71 1004.6
20260506015611 74 344 2.6 6.1 0.00 0.00 0.00 71 1004.7
20260506015108 74 350 2.6 4.3 0.00 0.00 0.00 71 1004.3
20260506014606 74 16 4.3 4.3 0.00 0.00 0.00 71 1004.4
20260506014101 75 358 2.6 3.5 0.00 0.00 0.00 70 1004.0
20260506013559 75 12 6.1 7.0 0.00 0.00 0.00 69 1004.1
20260506013056 75 350 4.3 4.3 0.00 0.00 0.00 69 1004.3
20260506012552 75 3 4.3 6.1 0.00 0.00 0.00 69 1004.5
20260506012048 75 329 2.6 4.3 0.00 0.00 0.00 69 1004.0
20260506011547 75 355 3.5 3.5 0.00 0.00 0.00 69 1003.8
20260506011043 76 343 1.7 3.5 0.00 0.00 0.00 68 1003.5
20260506010542 76 20 2.6 3.5 0.00 0.00 0.00 67 1003.6
20260506010038 76 335 3.5 5.2 0.00 0.00 0.00 67 1003.8
20260506005535 76 290 4.3 5.2 0.00 0.00 0.00 67 1004.1
20260506005031 77 340 2.6 4.3 0.00 0.00 0.00 66 1004.0
20260506004529 77 13 7.0 9.6 0.00 0.00 0.00 64 1004.0
20260506004025 78 325 4.3 5.2 0.00 0.00 0.00 64 1003.5
20260506003522 79 349 3.5 4.3 0.00 0.00 0.00 63 1003.7
20260506003018 79 323 3.5 5.2 0.00 0.00 0.00 62 1003.8
20260506002514 79 349 2.6 3.5 0.00 0.00 0.00 62 1004.2
20260506002009 80 357 2.6 8.7 0.00 0.00 0.00 61 1003.9
20260506001507 81 332 2.6 5.2 0.00 0.00 0.00 60 1003.7
20260506001004 82 314 4.3 7.0 0.00 0.00 0.00 61 1003.6
20260506000501 82 329 0.0 1.7 0.00 0.00 0.00 69 1003.0
20260505235958 82 271 0.9 1.7 0.00 0.00 0.00 70 1003.0
20260505235456 83 293 1.7 2.6 0.00 0.00 0.00 69 1002.9
20260505234953 84 258 1.7 2.6 0.00 0.00 0.00 67 1003.1
20260505234450 84 159 1.7 4.3 0.00 0.00 0.00 67 1002.9
20260505233947 84 153 1.7 5.2 0.00 0.00 0.00 66 1002.9
20260505233444 84 147 3.5 6.1 0.00 0.00 0.00 66 1002.7
20260505232942 85 166 3.5 4.3 0.00 0.00 0.00 66 1002.6
20260505232440 85 202 0.9 5.2 0.00 0.00 0.00 65 1002.6
20260505231936 85 158 2.6 6.1 0.00 0.00 0.00 65 1002.8
20260505231434 85 148 0.9 4.3 0.00 0.00 0.00 65 1002.6
20260505230932 86 212 4.3 5.2 0.00 0.00 0.00 64 1002.2
20260505230429 87 176 5.2 6.1 0.00 0.00 0.00 62 1002.5
20260505225925 88 153 5.2 5.2 0.00 0.00 0.00 61 1002.7
20260505225423 87 159 4.3 5.2 0.00 0.00 0.00 62 1002.7
20260505224918 87 189 1.7 3.5 0.00 0.00 0.00 63 1002.7
20260505224416 87 203 2.6 6.1 0.00 0.00 0.00 63 1002.6
20260505223912 87 212 2.6 8.7 0.00 0.00 0.00 61 1002.5
20260505223409 89 238 3.5 8.7 0.00 0.00 0.00 60 1002.2
20260505222905 89 164 3.5 4.3 0.00 0.00 0.00 58 1002.1
20260505222402 89 149 3.5 3.5 0.00 0.00 0.00 57 1002.2
20260505221858 89 170 1.7 7.8 0.00 0.00 0.00 58 1002.3
20260505221355 89 174 3.5 7.0 0.00 0.00 0.00 57 1002.3
20260505220853 90 156 1.7 4.3 0.00 0.00 0.00 57 1002.5
20260505220349 89 180 3.5 6.1 0.00 0.00 0.00 57 1002.5
20260505215847 89 181 1.7 6.1 0.00 0.00 0.00 58 1002.4
20260505215345 89 203 1.7 4.3 0.00 0.00 0.00 57 1002.5
20260505214843 89 172 3.5 6.1 0.00 0.00 0.00 57 1002.7
20260505214340 90 196 2.6 7.0 0.00 0.00 0.00 57 1002.6
20260505213837 88 184 1.7 5.2 0.00 0.00 0.00 58 1002.4
20260505213335 89 179 2.6 4.3 0.00 0.00 0.00 57 1002.6
20260505212831 89 237 4.3 6.1 0.00 0.00 0.00 57 1002.5
20260505212328 89 156 5.2 5.2 0.00 0.00 0.00 56 1002.8
20260505211824 89 200 4.3 8.7 0.00 0.00 0.00 57 1002.8
20260505211322 88 161 2.6 6.1 0.00 0.00 0.00 59 1002.8
20260505210818 88 180 1.7 6.1 0.00 0.00 0.00 60 1002.8
20260505210315 88 217 5.2 11.3 0.00 0.00 0.00 59 1002.7
20260505205812 88 189 3.5 8.7 0.00 0.00 0.00 59 1002.8
20260505205310 88 144 1.7 9.6 0.00 0.00 0.00 60 1002.7
20260505204807 88 191 3.5 10.4 0.00 0.00 0.00 60 1003.1
20260505204305 88 188 2.6 6.1 0.00 0.00 0.00 59 1003.2
20260505203801 88 185 3.5 7.8 0.00 0.00 0.00 59 1003.3
20260505203258 87 218 3.5 7.0 0.00 0.00 0.00 61 1003.1
20260505202754 87 172 6.1 7.8 0.00 0.00 0.00 60 1003.3
20260505202251 87 170 3.5 6.1 0.00 0.00 0.00 61 1003.1
20260505201747 86 179 0.9 10.4 0.00 0.00 0.00 62 1002.9
20260505201245 87 162 3.5 5.2 0.00 0.00 0.00 61 1003.1
20260505200743 87 203 3.5 11.3 0.00 0.00 0.00 61 1003.4
20260505200240 87 202 0.9 5.2 0.00 0.00 0.00 63 1003.4
20260505195735 86 201 6.1 11.3 0.00 0.00 0.00 63 1003.1
20260505195233 86 157 4.3 7.8 0.00 0.00 0.00 63 1003.4
20260505194730 85 178 2.6 5.2 0.00 0.00 0.00 65 1003.5
20260505194226 85 172 2.6 11.3 0.00 0.00 0.00 64 1003.5
20260505193722 85 53 1.7 7.0 0.00 0.00 0.00 64 1003.3
20260505193220 85 176 1.7 6.1 0.00 0.00 0.00 65 1003.4
20260505192718 85 229 5.2 7.0 0.00 0.00 0.00 64 1003.4
20260505192216 84 353 0.0 6.1 0.00 0.00 0.00 66 1003.4
20260505191714 83 204 2.6 11.3 0.00 0.00 0.00 66 1003.3
20260505191212 83 227 3.5 4.3 0.00 0.00 0.00 68 1003.4
20260505190708 83 178 1.7 13.0 0.00 0.00 0.00 65 1003.3
20260505190207 83 145 7.0 9.6 0.00 0.00 0.00 65 1003.3
20260505185704 83 159 4.3 6.1 0.00 0.00 0.00 66 1003.4
20260505185201 83 167 2.6 8.7 0.00 0.00 0.00 66 1003.2
20260505184657 82 223 3.5 11.3 0.00 0.00 0.00 67 1003.6
20260505184154 82 174 3.5 11.3 0.00 0.00 0.00 67 1003.6
20260505183651 83 152 4.3 7.0 0.00 0.00 0.00 66 1003.4
20260505183149 83 174 3.5 7.8 0.00 0.00 0.00 66 1003.3
20260505182645 83 205 6.1 10.4 0.00 0.00 0.00 65 1003.5
20260505182142 83 183 4.3 6.1 0.00 0.00 0.00 63 1003.6
20260505181638 83 229 7.8 9.6 0.00 0.00 0.00 65 1003.5
20260505181136 83 220 6.1 11.3 0.00 0.00 0.00 65 1003.4
20260505180632 84 255 2.6 13.9 0.00 0.00 0.00 64 1003.5
20260505180129 83 168 4.3 8.7 0.00 0.00 0.00 66 1003.3
20260505175625 83 196 5.2 7.0 0.00 0.00 0.00 66 1003.4
20260505175122 82 217 5.2 7.0 0.00 0.00 0.00 67 1003.5
20260505174618 82 167 4.3 8.7 0.00 0.00 0.00 68 1003.6
20260505174114 82 180 3.5 9.6 0.00 0.00 0.00 67 1003.4
20260505173611 82 173 4.3 8.7 0.00 0.00 0.00 66 1003.6
20260505173108 82 174 1.7 9.6 0.00 0.00 0.00 68 1003.3
20260505172606 81 56 0.9 9.6 0.00 0.00 0.00 68 1003.5
20260505172103 80 174 2.6 9.6 0.00 0.00 0.00 70 1003.6
20260505171603 80 154 6.1 13.0 0.00 0.00 0.00 69 1004.0
20260505171100 81 173 4.3 7.8 0.00 0.00 0.00 68 1003.8
20260505170557 81 189 5.2 7.0 0.00 0.00 0.00 68 1003.8
20260505170053 81 177 5.2 12.2 0.00 0.00 0.00 68 1003.4
20260505165548 81 248 3.5 7.0 0.00 0.00 0.00 70 1003.6
20260505165045 80 186 3.5 9.6 0.00 0.00 0.00 69 1003.5
20260505164540 80 178 2.6 11.3 0.00 0.00 0.00 71 1003.6
20260505164038 80 195 1.7 11.3 0.00 0.00 0.00 70 1003.8
20260505163537 79 182 7.0 7.8 0.00 0.00 0.00 71 1003.6
20260505163034 79 168 5.2 9.6 0.00 0.00 0.00 72 1003.6
20260505162532 78 178 4.3 16.5 0.00 0.00 0.00 72 1003.2
20260505162029 78 211 3.5 12.2 0.00 0.00 0.00 72 1003.4
20260505161525 78 187 3.5 10.4 0.00 0.00 0.00 72 1003.3
20260505161023 79 237 1.7 13.0 0.00 0.00 0.00 71 1003.2
20260505160521 78 261 2.6 7.0 0.00 0.00 0.00 73 1003.1
20260505152957 77 208 3.5 10.4 0.00 0.00 0.00 74 1003.3
20260505152455 76 210 6.1 13.9 0.00 0.00 0.00 76 1003.2
20260505151949 76 177 3.5 16.5 0.00 0.00 0.00 75 1003.4
20260505151445 76 157 5.2 12.2 0.00 0.00 0.00 76 1003.4
20260505150943 76 219 3.5 14.8 0.00 0.00 0.00 76 1003.1
20260505150439 76 200 5.2 11.3 0.00 0.00 0.00 76 1003.2
20260505140410 74 178 4.3 11.3 0.00 0.00 0.00 79 1003.0
20260505124823 72 155 4.3 6.1 0.00 0.00 0.00 81 1002.8
20260505124320 72 223 1.7 11.3 0.00 0.00 0.00 81 1002.8
20260505123816 72 149 5.2 9.6 0.00 0.00 0.00 82 1002.7
20260505123313 72 205 7.0 8.7 0.00 0.00 0.00 82 1002.5
20260505122809 72 146 0.9 9.6 0.00 0.00 0.00 82 1002.6
20260505122306 72 215 2.6 12.2 0.00 0.00 0.00 82 1002.7
20260505121802 72 155 11.3 15.6 0.00 0.00 0.00 82 1002.5
20260505121300 71 166 2.6 5.2 0.00 0.00 0.00 82 1002.4
20260505120756 71 161 5.2 6.1 0.00 0.00 0.00 82 1002.6
20260505120252 71 163 4.3 10.4 0.00 0.00 0.00 82 1002.4
20260505115751 71 192 2.6 9.6 0.00 0.00 0.00 82 1002.3
20260505115248 71 138 1.7 7.8 0.00 0.00 0.00 82 1002.4
20260505114746 71 178 6.1 9.6 0.00 0.00 0.00 82 1002.4
20260505114242 71 182 2.6 9.6 0.00 0.00 0.00 82 1001.8